When you browse on this site, cookies collect data to enhance your experience and personalize the content and advertising you see.
Visit our Privacy Policy to learn more. By continuing to use the site, you agree to this use of cookies and data.
  • In Austria
  • List of Countries
  • For 7 days
  • Water Temperature
  • Satellite Maps
  • Weather Map
  • News
  • Weather Widgets
  • user-avatar
    Login

    Hourly Weather Coppell

    Today, 27 June, Thursday

    Time Temperature Precipitation Wind Pressure Humidity
    00:00 +29°C° 0 mm 4 mps 751 mmHg 66%
    01:00 +29°C° 0 mm 3 mps 750 mmHg 69%
    02:00 +28°C° 0 mm 3 mps 750 mmHg 71%
    03:00 +28°C° 0 mm 3 mps 750 mmHg 74%
    04:00 +27°C° 0 mm 3 mps 750 mmHg 76%
    05:00 +27°C° 0 mm 3 mps 751 mmHg 78%
    06:00 +27°C° 0 mm 3 mps 751 mmHg 80%
    07:00 +28°C° 0 mm 3 mps 751 mmHg 74%
    08:00 +30°C° 0 mm 3 mps 751 mmHg 67%
    09:00 +32°C° 0 mm 4 mps 752 mmHg 61%
    10:00 +33°C° 0 mm 4 mps 752 mmHg 56%
    11:00 +35°C° 0 mm 4 mps 752 mmHg 51%
    12:00 +36°C° 0 mm 4 mps 752 mmHg 46%
    13:00 +37°C° 0 mm 4 mps 751 mmHg 44%
    14:00 +37°C° 0 mm 4 mps 751 mmHg 42%
    15:00 +38°C° 0 mm 4 mps 750 mmHg 40%
    16:00 +37°C° 0 mm 4 mps 750 mmHg 43%
    17:00 +36°C° 0 mm 4 mps 749 mmHg 46%
    18:00 +36°C° 0 mm 4 mps 749 mmHg 49%
    19:00 +35°C° 0 mm 4 mps 749 mmHg 52%
    20:00 +34°C° 0 mm 4 mps 750 mmHg 55%
    21:00 +33°C° 0 mm 4 mps 750 mmHg 57%
    22:00 +32°C° 0 mm 4 mps 750 mmHg 59%
    23:00 +31°C° 0 mm 3 mps 750 mmHg 61%

    Tomorrow, 28 June, Friday

    Time Temperature Precipitation Wind Pressure Humidity
    00:00 +30°C° 0 mm 3 mps 750 mmHg 63%
    01:00 +30°C° 0 mm 3 mps 750 mmHg 64%
    02:00 +29°C° 0 mm 3 mps 750 mmHg 66%
    03:00 +29°C° 0 mm 3 mps 749 mmHg 67%
    04:00 +28°C° 0 mm 3 mps 749 mmHg 68%
    05:00 +28°C° 0 mm 3 mps 750 mmHg 70%
    06:00 +28°C° 0 mm 3 mps 750 mmHg 71%
    07:00 +29°C° 0 mm 3 mps 750 mmHg 67%
    08:00 +31°C° 0 mm 3 mps 750 mmHg 62%
    09:00 +33°C° 0 mm 3 mps 750 mmHg 58%
    10:00 +34°C° 0 mm 3 mps 750 mmHg 53%
    11:00 +36°C° 0 mm 3 mps 750 mmHg 48%
    12:00 +37°C° 0 mm 3 mps 750 mmHg 43%
    13:00 +38°C° 0 mm 3 mps 750 mmHg 41%
    14:00 +38°C° 0 mm 3 mps 749 mmHg 39%
    15:00 +38°C° 0 mm 3 mps 749 mmHg 38%
    16:00 +38°C° 0 mm 2 mps 748 mmHg 38%
    17:00 +38°C° 0 mm 2 mps 748 mmHg 39%
    18:00 +37°C° 0 mm 2 mps 748 mmHg 40%
    19:00 +36°C° 0 mm 2 mps 748 mmHg 42%
    20:00 +35°C° 0 mm 2 mps 748 mmHg 44%
    21:00 +34°C° 0 mm 2 mps 748 mmHg 46%
    22:00 +32°C° 0 mm 2 mps 748 mmHg 47%
    23:00 +31°C° 0 mm 2 mps 748 mmHg 49%

    Day after tomorrow, 29 June, Saturday

    Time Temperature Precipitation Wind Pressure Humidity
    00:00 +31°C° 0 mm 3 mps 748 mmHg 50%
    01:00 +30°C° 0 mm 3 mps 748 mmHg 51%
    02:00 +30°C° 0 mm 3 mps 748 mmHg 52%
    03:00 +29°C° 0 mm 3 mps 747 mmHg 53%
    04:00 +29°C° 0 mm 2 mps 748 mmHg 55%
    05:00 +29°C° 0 mm 2 mps 748 mmHg 57%
    06:00 +28°C° 0 mm 2 mps 748 mmHg 59%
    07:00 +30°C° 0 mm 2 mps 749 mmHg 56%
    08:00 +31°C° 0 mm 2 mps 749 mmHg 52%
    09:00 +33°C° 0 mm 3 mps 749 mmHg 49%
    10:00 +34°C° 0 mm 3 mps 749 mmHg 45%
    11:00 +36°C° 0 mm 3 mps 749 mmHg 41%
    12:00 +37°C° 0 mm 4 mps 748 mmHg 38%
    13:00 +38°C° 0 mm 3 mps 748 mmHg 35%
    14:00 +39°C° 0 mm 3 mps 747 mmHg 33%
    15:00 +40°C° 0 mm 3 mps 747 mmHg 30%
    16:00 +39°C° 0 mm 2 mps 746 mmHg 32%
    17:00 +39°C° 0 mm 2 mps 746 mmHg 34%
    18:00 +39°C° 0 mm 2 mps 746 mmHg 35%
    19:00 +36°C° 0.2 mm 3 mps 746 mmHg 42%
    20:00 +34°C° 0.2 mm 4 mps 746 mmHg 50%
    21:00 +32°C° 0.2 mm 5 mps 746 mmHg 57%
    22:00 +30°C° 0.1 mm 5 mps 747 mmHg 58%
    23:00 +29°C° 0.1 mm 4 mps 747 mmHg 59%

    30 June, Sunday

    Time Temperature Precipitation Wind Pressure Humidity
    00:00 +29°C° 0.1 mm 4 mps 747 mmHg 60%
    01:00 +28°C° 0.3 mm 4 mps 747 mmHg 63%
    02:00 +27°C° 0.3 mm 4 mps 747 mmHg 66%
    03:00 +27°C° 0.3 mm 4 mps 747 mmHg 69%
    04:00 +27°C° 0.1 mm 3 mps 747 mmHg 70%
    05:00 +27°C° 0.1 mm 2 mps 747 mmHg 71%
    06:00 +27°C° 0.1 mm 2 mps 747 mmHg 71%
    07:00 +28°C° 0 mm 2 mps 747 mmHg 65%
    08:00 +29°C° 0 mm 2 mps 747 mmHg 59%
    09:00 +31°C° 0 mm 2 mps 748 mmHg 53%
    10:00 +32°C° 0 mm 2 mps 748 mmHg 48%
    11:00 +34°C° 0 mm 2 mps 747 mmHg 44%
    12:00 +36°C° 0 mm 3 mps 747 mmHg 39%
    13:00 +36°C° 0 mm 3 mps 747 mmHg 38%
    14:00 +37°C° 0 mm 3 mps 746 mmHg 37%
    15:00 +38°C° 0 mm 3 mps 746 mmHg 36%
    16:00 +37°C° 0 mm 4 mps 746 mmHg 39%
    17:00 +36°C° 0 mm 4 mps 745 mmHg 42%
    18:00 +36°C° 0 mm 5 mps 745 mmHg 45%
    19:00 +35°C° 0.3 mm 5 mps 746 mmHg 47%
    20:00 +33°C° 0.3 mm 5 mps 746 mmHg 49%
    21:00 +32°C° 0.3 mm 5 mps 746 mmHg 51%
    22:00 +30°C° 0 mm 5 mps 746 mmHg 53%
    23:00 +30°C° 0 mm 5 mps 747 mmHg 55%

    1 July, Monday

    Time Temperature Precipitation Wind Pressure Humidity
    00:00 +30°C° 0 mm 5 mps 747 mmHg 57%
    01:00 +29°C° 0.2 mm 5 mps 747 mmHg 60%
    02:00 +29°C° 0.2 mm 5 mps 747 mmHg 62%
    03:00 +28°C° 0.2 mm 5 mps 747 mmHg 65%
    04:00 +28°C° 0 mm 4 mps 747 mmHg 66%
    05:00 +28°C° 0 mm 4 mps 747 mmHg 66%
    06:00 +28°C° 0 mm 4 mps 748 mmHg 67%
    07:00 +29°C° 0 mm 5 mps 748 mmHg 63%
    08:00 +30°C° 0 mm 5 mps 748 mmHg 60%
    09:00 +32°C° 0 mm 5 mps 748 mmHg 56%
    10:00 +33°C° 0 mm 5 mps 748 mmHg 51%
    11:00 +35°C° 0 mm 5 mps 748 mmHg 46%
    12:00 +36°C° 0 mm 5 mps 748 mmHg 42%
    13:00 +37°C° 0 mm 5 mps 747 mmHg 40%
    14:00 +37°C° 0 mm 5 mps 747 mmHg 38%
    15:00 +39°C° 0 mm 5 mps 746 mmHg 37%
    16:00 +37°C° 0 mm 5 mps 746 mmHg 39%
    17:00 +36°C° 0 mm 5 mps 746 mmHg 41%
    18:00 +36°C° 0 mm 5 mps 746 mmHg 43%
    19:00 +35°C° 0 mm 5 mps 746 mmHg 46%
    20:00 +34°C° 0 mm 5 mps 746 mmHg 49%
    21:00 +33°C° 0 mm 6 mps 747 mmHg 52%
    22:00 +32°C° 0 mm 5 mps 747 mmHg 52%
    23:00 +32°C° 0 mm 5 mps 747 mmHg 53%

    2 July, Tuesday

    Time Temperature Precipitation Wind Pressure Humidity
    00:00 +30°C° 0 mm 5 mps 747 mmHg 54%
    01:00 +30°C° 0 mm 5 mps 747 mmHg 59%
    02:00 +29°C° 0 mm 5 mps 747 mmHg 64%
    03:00 +28°C° 0 mm 5 mps 747 mmHg 69%
    04:00 +28°C° 0 mm 4 mps 747 mmHg 70%
    05:00 +28°C° 0 mm 4 mps 747 mmHg 71%
    06:00 +28°C° 0 mm 3 mps 747 mmHg 73%
    07:00 +29°C° 0 mm 3 mps 747 mmHg 69%
    08:00 +30°C° 0 mm 3 mps 748 mmHg 64%
    09:00 +31°C° 0 mm 3 mps 748 mmHg 60%
    10:00 +34°C° 0 mm 4 mps 748 mmHg 53%
    11:00 +35°C° 0 mm 4 mps 747 mmHg 47%
    12:00 +37°C° 0 mm 4 mps 747 mmHg 40%
    13:00 +37°C° 0 mm 4 mps 747 mmHg 40%
    14:00 +37°C° 0 mm 5 mps 746 mmHg 40%
    15:00 +37°C° 0 mm 5 mps 746 mmHg 40%
    16:00 +37°C° 0 mm 5 mps 745 mmHg 42%
    17:00 +36°C° 0 mm 5 mps 745 mmHg 44%
    18:00 +35°C° 0 mm 5 mps 745 mmHg 47%
    19:00 +34°C° 0 mm 5 mps 745 mmHg 52%
    20:00 +33°C° 0 mm 6 mps 746 mmHg 58%
    21:00 +30°C° 0 mm 6 mps 746 mmHg 63%
    22:00 +30°C° 0 mm 6 mps 746 mmHg 66%
    23:00 +29°C° 0 mm 6 mps 746 mmHg 68%
    Show more